Regional Weather Roundup
Issued by NWS State College, PA

Home | Current Version | Previous Version | Text Only | Print | Product List | Glossary Off
Versions: 1 2 3 4 5 6 7 8 9 10 11 12 13 14 15 16 17 18 19 20 21 22 23 24 25 26 27 28 29 30 31 32 33 34 35 36 37 38 39 40 41 42 43 44 45 46 47 48 49 50

000
ASUS41 KCTP 111303
RWRCTP

REGIONAL WEATHER ROUNDUP
NATIONAL WEATHER SERVICE STATE COLLEGE PA
900 AM EDT FRI JUL 11 2014

Note: "fair" indicates few or no clouds below 12,000 feet with no
significant weather and/or obstructions to visibility.

* = STATION THAT DOES NOT REPORT PRECIPITATION /E.G. RAIN...SNOW...ETC/
    THUNDER OR FOG.

PAZ002>004-007>009-013>016-020>023-029>032-111400-
WESTERN PENNSYLVANIA

CITY           SKY/WX    TMP DP  RH WIND       PRES   REMARKS
ERIE           SUNNY     69  58  67 CALM      30.24R
MEADVILLE      SUNNY     67  59  75 CALM      30.25R
FRANKLIN*      SUNNY     64  57  77 E3        30.27R
NEW CASTLE     NOT AVBL
BEAVER COUNTY  SUNNY     68  61  77 CALM      30.23R
BUTLER*        SUNNY     68  61  77 CALM      30.25R
PITTSBURGH INT MOSUNNY   68  61  78 CALM      30.22R
PITTSBURGH     SUNNY     70  60  70 E3        30.22R
INDIANA*       SUNNY     68  63  83 SE5       30.27S
LATROBE        NOT AVBL
WASHINGTON CO* PTSUNNY   70  63  78 CALM      30.23R
$$

PAZ004>006-010>012-017>019-024>028-033>037-041-042-045-046-049>053-111400-
CENTRAL PENNSYLVANIA

CITY           SKY/WX    TMP DP  RH WIND       PRES   REMARKS
BRADFORD       SUNNY     65  55  70 SE5       30.28R
DUBOIS         SUNNY     67  59  75 SE6       30.25R
CLEARFIELD     SUNNY     60  58  92 NE8       30.26R
JOHNSTOWN      SUNNY     68  60  75 CALM      30.26R
ALTOONA        FOG       62  62 100 CALM      30.26R VSB 1/4
STATE COLLEGE  MOSUNNY   63  61  94 CALM      30.26R
WILLIAMSPORT   SUNNY     67  57  70 SW3       30.23S
SELINSGROVE    SUNNY     71  60  68 NE5       30.23S
FT INDIANTOWN  SUNNY     73  73  99 VRB2      30.22R
CAPITAL CITY   SUNNY     73  64  73 CALM      30.21R
HARRISBURG     SUNNY     74  65  73 CALM      30.20R
YORK           SUNNY     70  66  87 CALM      30.21R FOG
$$

PAZ038>040-043-044-047-048-054-055-060>062-067>071-111400-
EASTERN PENNSYLVANIA

CITY           SKY/WX    TMP DP  RH WIND       PRES   REMARKS
SCRANTON       SUNNY     69  57  65 VRB3      30.25R
MOUNT POCONO   SUNNY     68  53  58 E9        30.27R
ALLENTOWN      MOSUNNY   72  56  57 E8        30.22R
QUAKERTOWN*    PTSUNNY   70  61  73 NE6       30.23R
READING        SUNNY     73  60  63 NE7       30.21R
LANCASTER      PTSUNNY   71  65  81 VRB3      30.21R
COATESVILLE    SUNNY     72  66  83 E5        30.22R
POTTSTOWN      MOSUNNY   72  66  81 NE6       30.23R
BLUE BELL      SUNNY     75  64  69 NE3       30.20R
DOYLESTOWN     SUNNY     72  60  66 NE9       30.21R
WILLOW GROVE   NOT AVBL
NORTH PHILA    SUNNY     76  62  62 NE8       30.21R
PHILADELPHIA   MOSUNNY   77  62  59 NE8       30.19R
$$



USA.gov is the U.S. government's official web portal to all federal, state and local government web resources and services.